GAP2545 RPLL-RPVD

Flight info

Callsign GAP2545
Flight time 1h 3m
Altitude 35000
Route VERDE2R VERDE A461 SAJ W3 IOO B472 NANAS NANAS1W
Aircraft A320/M-SDE3FGHIRWY/LB1

Departure

Time 2026-05-05 11:15
Airport Ninoy Aquino International Airport (RPLL)

Arrival

Time 2026-05-05 12:18
Airport Sibulan Airport (RPVD)
Time Latitude Longitude Altitude Speed Heading
2026-05-05 11:04 14.50862 121.01337 69 ft 0 kts 329°
2026-05-05 11:04 14.50844 121.01306 67 ft 0 kts 329°
2026-05-05 11:08 14.50842 121.01307 69 ft 3 kts 329°
2026-05-05 11:08 14.50819 121.01321 64 ft 4 kts 329°
2026-05-05 11:08 14.50797 121.01338 63 ft 4 kts 312°
2026-05-05 11:08 14.50783 121.01361 61 ft 4 kts 273°
2026-05-05 11:09 14.50786 121.01378 65 ft 0 kts 240°
2026-05-05 11:11 14.50771 121.01350 62 ft 5 kts 239°
2026-05-05 11:11 14.50745 121.01322 65 ft 8 kts 209°
2026-05-05 11:11 14.50667 121.01304 62 ft 13 kts 213°
2026-05-05 11:11 14.50621 121.01232 69 ft 14 kts 241°
2026-05-05 11:12 14.50543 121.01094 67 ft 30 kts 240°
2026-05-05 11:12 14.50438 121.00904 64 ft 31 kts 240°
2026-05-05 11:12 14.50327 121.00704 68 ft 31 kts 241°
2026-05-05 11:12 14.50220 121.00513 67 ft 32 kts 239°
2026-05-05 11:13 14.50112 121.00317 68 ft 31 kts 240°
2026-05-05 11:13 14.50012 121.00139 65 ft 25 kts 240°
2026-05-05 11:13 14.49928 120.99990 63 ft 18 kts 241°
2026-05-05 11:13 14.49848 120.99979 67 ft 13 kts 149°
2026-05-05 11:14 14.49812 121.00056 69 ft 14 kts 71°
2026-05-05 11:14 14.49872 121.00162 63 ft 26 kts 61°
2026-05-05 11:14 14.50075 121.00527 65 ft 94 kts 60°
2026-05-05 11:14 14.50502 121.01298 71 ft 152 kts 60°
2026-05-05 11:15 14.51072 121.02311 532 ft 163 kts 61°
2026-05-05 11:15 14.51638 121.03336 1211 ft 165 kts 63°
2026-05-05 11:15 14.52206 121.04373 1973 ft 168 kts 62°
2026-05-05 11:15 14.52817 121.05480 2343 ft 189 kts 62°
2026-05-05 11:16 14.53507 121.06724 2662 ft 211 kts 62°
2026-05-05 11:16 14.54283 121.08120 3002 ft 237 kts 61°
2026-05-05 11:16 14.55134 121.09657 3592 ft 253 kts 61°
2026-05-05 11:16 14.55859 121.11332 4386 ft 259 kts 77°
2026-05-05 11:17 14.55978 121.13197 5224 ft 264 kts 97°
2026-05-05 11:17 14.55423 121.15009 6098 ft 269 kts 118°
2026-05-05 11:17 14.54252 121.16538 6883 ft 275 kts 134°
2026-05-05 11:17 14.52887 121.17938 7724 ft 279 kts 134°
2026-05-05 11:18 14.51504 121.19358 8571 ft 282 kts 133°
2026-05-05 11:18 14.50108 121.20796 9384 ft 286 kts 133°
2026-05-05 11:18 14.48687 121.22249 10147 ft 291 kts 136°
2026-05-05 11:18 14.46915 121.23341 10656 ft 306 kts 161°
2026-05-05 11:19 14.44774 121.23536 11299 ft 317 kts 186°
2026-05-05 11:19 14.42648 121.22718 11569 ft 342 kts 214°
2026-05-05 11:19 14.40895 121.20994 12101 ft 353 kts 226°
2026-05-05 11:19 14.39239 121.19100 12774 ft 358 kts 227°
2026-05-05 11:20 14.37589 121.17153 13463 ft 362 kts 228°
2026-05-05 11:20 14.35928 121.15181 14086 ft 366 kts 227°
2026-05-05 11:20 14.34242 121.13198 14681 ft 369 kts 227°
2026-05-05 11:20 14.32530 121.11213 15287 ft 372 kts 227°
2026-05-05 11:21 14.30796 121.09224 15893 ft 374 kts 226°
2026-05-05 11:21 14.29041 121.07227 16490 ft 377 kts 225°
2026-05-05 11:21 14.27084 121.05430 17074 ft 378 kts 214°
2026-05-05 11:21 14.24909 121.03894 17663 ft 380 kts 213°
2026-05-05 11:22 14.23459 121.02876 18057 ft 382 kts 213°
2026-05-05 11:22 14.21256 121.01326 18565 ft 384 kts 213°
2026-05-05 11:22 14.19042 120.99765 19069 ft 387 kts 213°
2026-05-05 11:22 14.16813 120.98193 19581 ft 389 kts 213°
2026-05-05 11:23 14.14569 120.96614 20091 ft 392 kts 213°
2026-05-05 11:23 14.12314 120.95028 20604 ft 394 kts 213°
2026-05-05 11:23 14.10039 120.93425 21086 ft 397 kts 213°
2026-05-05 11:23 14.07701 120.91899 21586 ft 399 kts 206°
2026-05-05 11:24 14.05112 120.90862 22086 ft 401 kts 194°
2026-05-05 11:24 14.01444 120.90409 22724 ft 404 kts 178°
2026-05-05 11:24 13.99552 120.90597 23050 ft 406 kts 170°
2026-05-05 11:24 13.96796 120.91272 23509 ft 409 kts 166°
2026-05-05 11:25 13.94031 120.91994 23902 ft 411 kts 166°
2026-05-05 11:25 13.91250 120.92713 24300 ft 413 kts 166°
2026-05-05 11:25 13.88457 120.93428 24691 ft 415 kts 166°
2026-05-05 11:25 13.85644 120.94144 25069 ft 417 kts 166°
2026-05-05 11:26 13.82816 120.94865 25443 ft 420 kts 166°
2026-05-05 11:26 13.79976 120.95591 25811 ft 422 kts 166°
2026-05-05 11:26 13.77119 120.96326 26182 ft 424 kts 166°
2026-05-05 11:26 13.74251 120.97064 26537 ft 426 kts 166°
2026-05-05 11:27 13.71370 120.97804 26882 ft 428 kts 166°
2026-05-05 11:27 13.68473 120.98548 27216 ft 430 kts 166°
2026-05-05 11:27 13.65561 120.99292 27555 ft 432 kts 166°
2026-05-05 11:27 13.62635 121.00038 27894 ft 434 kts 166°
2026-05-05 11:28 13.59697 121.00786 28216 ft 436 kts 166°
2026-05-05 11:28 13.56743 121.01540 28544 ft 438 kts 166°
2026-05-05 11:28 13.53772 121.02301 28860 ft 440 kts 166°
2026-05-05 11:28 13.50779 121.02987 29164 ft 442 kts 172°
2026-05-05 11:29 13.47708 121.03218 29461 ft 444 kts 179°
2026-05-05 11:29 13.44606 121.03240 29756 ft 446 kts 179°
2026-05-05 11:29 13.41493 121.03264 30041 ft 448 kts 179°
2026-05-05 11:29 13.38368 121.03291 30276 ft 450 kts 179°
2026-05-05 11:30 13.35230 121.03323 30515 ft 452 kts 179°
2026-05-05 11:30 13.32077 121.03356 30745 ft 454 kts 180°
2026-05-05 11:30 13.28954 121.03389 30976 ft 456 kts 180°
2026-05-05 11:30 13.25776 121.03421 31195 ft 458 kts 180°
2026-05-05 11:31 13.22588 121.03452 31431 ft 459 kts 180°
2026-05-05 11:31 13.19387 121.03484 31661 ft 460 kts 180°
2026-05-05 11:31 13.16185 121.03517 31982 ft 459 kts 180°
2026-05-05 11:31 13.12994 121.03548 32300 ft 459 kts 180°
2026-05-05 11:32 13.09805 121.03580 32617 ft 458 kts 180°
2026-05-05 11:32 13.06621 121.03614 32929 ft 457 kts 180°
2026-05-05 11:32 13.03445 121.03648 33244 ft 457 kts 180°
2026-05-05 11:32 13.00267 121.03676 33553 ft 456 kts 180°
2026-05-05 11:33 12.97095 121.03702 33883 ft 456 kts 180°
2026-05-05 11:33 12.93921 121.03731 34163 ft 455 kts 180°
2026-05-05 11:33 12.90753 121.03760 34438 ft 455 kts 180°
2026-05-05 11:33 12.87590 121.03790 34705 ft 454 kts 180°
2026-05-05 11:34 12.84427 121.03824 34882 ft 455 kts 180°
2026-05-05 11:34 12.78152 121.03899 34931 ft 446 kts 180°
2026-05-05 11:35 12.71965 121.03958 34927 ft 444 kts 180°
2026-05-05 11:35 12.65781 121.04007 34923 ft 444 kts 180°
2026-05-05 11:36 12.59603 121.04065 34915 ft 444 kts 180°
2026-05-05 11:36 12.53421 121.04138 34907 ft 444 kts 180°
2026-05-05 11:37 12.47248 121.04210 34902 ft 444 kts 180°
2026-05-05 11:37 12.41077 121.04333 34893 ft 444 kts 175°
2026-05-05 11:37 12.38039 121.04920 34900 ft 446 kts 164°
2026-05-05 11:38 12.35153 121.06085 34886 ft 447 kts 153°
2026-05-05 11:38 12.30180 121.09900 34881 ft 450 kts 138°
2026-05-05 11:39 12.25615 121.14273 34879 ft 450 kts 138°
2026-05-05 11:39 12.21045 121.18651 34872 ft 450 kts 138°
2026-05-05 11:40 12.16470 121.23031 34872 ft 450 kts 138°
2026-05-05 11:40 12.11890 121.27400 34873 ft 450 kts 138°
2026-05-05 11:41 12.07308 121.31774 34874 ft 450 kts 138°
2026-05-05 11:41 12.02734 121.36143 34870 ft 450 kts 138°
2026-05-05 11:42 11.98156 121.40519 34875 ft 451 kts 138°
2026-05-05 11:42 11.93575 121.44889 34870 ft 451 kts 138°
2026-05-05 11:43 11.88989 121.49254 34881 ft 451 kts 139°
2026-05-05 11:43 11.84401 121.53615 34873 ft 451 kts 139°
2026-05-05 11:44 11.79810 121.57979 34887 ft 451 kts 139°
2026-05-05 11:44 11.75226 121.62353 34888 ft 451 kts 138°
2026-05-05 11:45 11.70642 121.66720 34888 ft 451 kts 139°
2026-05-05 11:45 11.66055 121.71080 34890 ft 451 kts 139°
2026-05-05 11:46 11.61499 121.75411 34893 ft 450 kts 138°
2026-05-05 11:46 11.56916 121.79767 34892 ft 450 kts 139°
2026-05-05 11:47 11.52324 121.84126 34897 ft 450 kts 138°
2026-05-05 11:47 11.47742 121.88482 34900 ft 450 kts 138°
2026-05-05 11:48 11.40858 121.95004 34911 ft 450 kts 138°
2026-05-05 11:48 11.36272 121.99353 34915 ft 450 kts 138°
2026-05-05 11:49 11.31688 122.03708 34915 ft 450 kts 138°
2026-05-05 11:49 11.27103 122.08050 34916 ft 450 kts 138°
2026-05-05 11:50 11.22521 122.12388 34922 ft 450 kts 138°
2026-05-05 11:50 11.17939 122.16721 34923 ft 449 kts 139°
2026-05-05 11:51 11.13359 122.21047 34925 ft 449 kts 138°
2026-05-05 11:51 11.08787 122.25373 34928 ft 448 kts 138°
2026-05-05 11:52 11.04222 122.29688 34928 ft 448 kts 138°
2026-05-05 11:52 10.99655 122.34005 34925 ft 447 kts 138°
2026-05-05 11:53 10.95093 122.38309 34918 ft 447 kts 138°
2026-05-05 11:53 10.90530 122.42608 34909 ft 447 kts 138°
2026-05-05 11:54 10.85970 122.46909 34904 ft 447 kts 138°
2026-05-05 11:54 10.80896 122.50469 34899 ft 443 kts 156°
2026-05-05 11:55 10.75303 122.53105 34892 ft 443 kts 156°
2026-05-05 11:55 10.69707 122.55749 34593 ft 443 kts 156°
2026-05-05 11:56 10.66913 122.57072 34359 ft 443 kts 156°
2026-05-05 11:56 10.64148 122.58378 34138 ft 444 kts 156°
2026-05-05 11:56 10.61348 122.59700 33912 ft 444 kts 156°
2026-05-05 11:56 10.58544 122.61024 33662 ft 444 kts 156°
2026-05-05 11:57 10.55745 122.62350 33413 ft 443 kts 156°
2026-05-05 11:57 10.52966 122.63666 33079 ft 439 kts 156°
2026-05-05 11:57 10.50206 122.64972 32501 ft 436 kts 156°
2026-05-05 11:57 10.47459 122.66270 31935 ft 433 kts 155°
2026-05-05 11:58 10.44735 122.67557 31380 ft 431 kts 155°
2026-05-05 11:58 10.42023 122.68836 30831 ft 429 kts 155°
2026-05-05 11:58 10.39323 122.70109 30294 ft 427 kts 155°
2026-05-05 11:58 10.36636 122.71377 29716 ft 425 kts 155°
2026-05-05 11:59 10.33965 122.72640 29145 ft 421 kts 155°
2026-05-05 11:59 10.31319 122.73890 28631 ft 417 kts 155°
2026-05-05 11:59 10.28699 122.75125 28109 ft 414 kts 155°
2026-05-05 11:59 10.26101 122.76349 27616 ft 410 kts 154°
2026-05-05 12:00 10.23528 122.77563 27117 ft 406 kts 154°
2026-05-05 12:00 10.20974 122.78771 26638 ft 403 kts 154°
2026-05-05 12:00 10.18441 122.79964 26161 ft 400 kts 154°
2026-05-05 12:00 10.15923 122.81147 25684 ft 397 kts 154°
2026-05-05 12:01 10.13421 122.82324 25201 ft 395 kts 154°
2026-05-05 12:01 10.10933 122.83499 24715 ft 394 kts 154°
2026-05-05 12:01 10.08457 122.84670 24207 ft 392 kts 154°
2026-05-05 12:01 10.05984 122.85838 23711 ft 391 kts 153°
2026-05-05 12:02 10.03513 122.87001 23140 ft 391 kts 153°
2026-05-05 12:02 10.01055 122.88154 22610 ft 388 kts 154°
2026-05-05 12:02 9.98609 122.89303 22091 ft 386 kts 153°
2026-05-05 12:02 9.96179 122.90444 21577 ft 384 kts 153°
2026-05-05 12:03 9.93760 122.91580 21071 ft 382 kts 154°
2026-05-05 12:03 9.91354 122.92710 20559 ft 381 kts 154°
2026-05-05 12:03 9.88957 122.93835 20058 ft 379 kts 154°
2026-05-05 12:03 9.86566 122.94961 19551 ft 378 kts 153°
2026-05-05 12:04 9.84184 122.96084 19051 ft 377 kts 153°
2026-05-05 12:04 9.81824 122.97197 18609 ft 369 kts 153°
2026-05-05 12:04 9.80345 122.98014 18241 ft 360 kts 145°
2026-05-05 12:04 9.77916 123.00190 17566 ft 339 kts 128°
2026-05-05 12:05 9.76558 123.02083 17137 ft 325 kts 124°
2026-05-05 12:05 9.75280 123.03925 16724 ft 313 kts 124°
2026-05-05 12:05 9.74456 123.05110 16457 ft 310 kts 124°
2026-05-05 12:05 9.73216 123.06890 16057 ft 309 kts 124°
2026-05-05 12:06 9.71564 123.09261 15528 ft 307 kts 124°
2026-05-05 12:06 9.70748 123.10432 15277 ft 308 kts 124°
2026-05-05 12:06 9.69510 123.12212 14872 ft 310 kts 124°
2026-05-05 12:06 9.68266 123.14003 14472 ft 311 kts 124°
2026-05-05 12:07 9.67015 123.15802 14071 ft 313 kts 124°
2026-05-05 12:07 9.65755 123.17610 13656 ft 315 kts 124°
2026-05-05 12:07 9.64488 123.19426 13207 ft 315 kts 124°
2026-05-05 12:07 9.63224 123.21240 12780 ft 315 kts 124°
2026-05-05 12:08 9.61963 123.23050 12354 ft 314 kts 124°
2026-05-05 12:08 9.60702 123.24860 11928 ft 314 kts 124°
2026-05-05 12:08 9.59443 123.26666 11497 ft 314 kts 124°
2026-05-05 12:08 9.58185 123.28469 11079 ft 313 kts 124°
2026-05-05 12:09 9.56940 123.30254 10725 ft 309 kts 124°
2026-05-05 12:09 9.55699 123.32031 10313 ft 308 kts 124°
2026-05-05 12:09 9.54469 123.33796 10032 ft 302 kts 124°
2026-05-05 12:09 9.53273 123.35511 9809 ft 295 kts 124°
2026-05-05 12:10 9.52089 123.37208 9386 ft 294 kts 124°
2026-05-05 12:10 9.50920 123.38884 8849 ft 291 kts 124°
2026-05-05 12:10 9.49761 123.40545 8258 ft 285 kts 124°
2026-05-05 12:10 9.48623 123.42174 7737 ft 282 kts 124°
2026-05-05 12:11 9.47496 123.43789 7228 ft 279 kts 123°
2026-05-05 12:11 9.46376 123.45392 6729 ft 277 kts 124°
2026-05-05 12:11 9.45267 123.46980 6219 ft 275 kts 123°
2026-05-05 12:11 9.44161 123.48564 5675 ft 278 kts 124°
2026-05-05 12:12 9.43050 123.50156 5142 ft 273 kts 123°
2026-05-05 12:12 9.41824 123.51586 4594 ft 268 kts 140°
2026-05-05 12:12 9.40190 123.52439 4050 ft 263 kts 163°
2026-05-05 12:12 9.38394 123.52580 3521 ft 259 kts 187°
2026-05-05 12:13 9.36703 123.52029 2992 ft 254 kts 207°
2026-05-05 12:13 9.35185 123.51218 2669 ft 241 kts 208°
2026-05-05 12:13 9.33906 123.50258 2585 ft 218 kts 227°
2026-05-05 12:13 9.33050 123.49050 2528 ft 198 kts 244°
2026-05-05 12:14 9.32613 123.47835 2411 ft 176 kts 260°
2026-05-05 12:14 9.32494 123.46660 2333 ft 162 kts 274°
2026-05-05 12:14 9.32559 123.45542 2262 ft 157 kts 276°
2026-05-05 12:14 9.32622 123.44446 2188 ft 155 kts 275°
2026-05-05 12:15 9.32685 123.43357 2115 ft 154 kts 276°
2026-05-05 12:15 9.32748 123.42273 2047 ft 155 kts 276°
2026-05-05 12:15 9.32810 123.41183 1983 ft 155 kts 276°
2026-05-05 12:15 9.32870 123.40095 1778 ft 154 kts 276°
2026-05-05 12:16 9.32929 123.39017 1569 ft 152 kts 276°
2026-05-05 12:16 9.32988 123.37945 1359 ft 152 kts 276°
2026-05-05 12:16 9.33047 123.36874 1162 ft 153 kts 275°
2026-05-05 12:16 9.33106 123.35797 967 ft 153 kts 274°
2026-05-05 12:17 9.33167 123.34719 753 ft 152 kts 275°
2026-05-05 12:17 9.33228 123.33663 510 ft 148 kts 272°
2026-05-05 12:17 9.33286 123.32628 277 ft 146 kts 274°
2026-05-05 12:17 9.33343 123.31608 137 ft 145 kts 273°
2026-05-05 12:18 9.33397 123.30614 37 ft 136 kts 273°
2026-05-05 12:18 9.33433 123.29911 48 ft 57 kts 273°
2026-05-05 12:18 9.33445 123.29721 50 ft 13 kts 273°
2026-05-05 12:18 9.33450 123.29640 51 ft 10 kts 274°
2026-05-05 12:19 9.33453 123.29572 52 ft 11 kts 272°
2026-05-05 12:19 9.33438 123.29494 53 ft 11 kts 207°
2026-05-05 12:19 9.33383 123.29531 51 ft 11 kts 118°
2026-05-05 12:19 9.33333 123.29573 50 ft 4 kts 149°
2026-05-05 12:20 9.33322 123.29580 50 ft 0 kts 148°